Location: ??
(35.5052°N, 139.7262°E)
Time: 09:23:46
(UTC+00:00)

ATLAS 5 CENTAUR R/B - Visible Passes

Search period start: 21 October 2021 00:00
Search period end: 31 October 2021 00:00
Orbit: 269 x 12585 km, 20.2° (Epoch: 20 October)

Date Brightness Start Highest point End Pass type
(mag) Time Alt. Az. Time Alt. Az. Time Alt. Az.
21 Oct 4.6 17:49:05 39° SSW 17:55:24 50° SSE 19:03:45 10° E visible
22 Oct 4.6 17:51:05 40° SSW 17:57:19 50° SSE 19:05:36 10° E visible
23 Oct 4.6 17:53:02 40° SSW 17:59:12 51° SSE 19:07:21 10° E visible
24 Oct 4.6 17:54:57 41° SSW 18:01:02 51° SSE 19:09:02 10° E visible
25 Oct 4.6 17:56:49 41° SSW 18:02:50 51° SSE 19:10:38 10° ESE visible
26 Oct 4.5 17:58:39 41° SSW 18:04:37 52° SSE 19:12:08 10° ESE visible
27 Oct 4.5 18:00:25 41° SSW 18:06:22 52° SSE 19:13:34 10° ESE visible
28 Oct 4.5 18:02:10 41° SSW 18:08:04 52° SSE 19:14:55 10° ESE visible
29 Oct 4.5 18:03:52 41° SSW 18:09:45 52° SSE 19:16:10 10° ESE visible
30 Oct 4.5 18:05:32 41° SSW 18:11:23 51° SSE 19:17:20 10° ESE visible
